TimeCST,TemperatureF,Dew PointF,Humidity,Sea Level PressureIn,VisibilityMPH,Wind Direction,Wind SpeedMPH,Gust SpeedMPH,PrecipitationIn,Events,Conditions,WindDirDegrees,DateUTC
12:55 AM,26.1,18.7,74,30.17,10.0,SSW,9.2,-,N/A,,Clear,200,2013-02-02 06:55:00
1:55 AM,26.8,17.8,69,30.16,10.0,SSW,9.2,-,N/A,,Clear,200,2013-02-02 07:55:00
2:55 AM,25.7,18.5,74,30.15,10.0,SSW,9.2,-,N/A,,Mostly Cloudy,200,2013-02-02 08:55:00
3:55 AM,28.9,18.3,65,30.14,10.0,SW,10.4,-,N/A,,Overcast,220,2013-02-02 09:55:00
4:55 AM,30.6,17.8,59,30.14,10.0,WSW,11.5,-,N/A,,Overcast,240,2013-02-02 10:55:00
5:55 AM,29.8,18.0,61,30.15,10.0,West,11.5,19.6,N/A,,Scattered Clouds,280,2013-02-02 11:55:00
6:55 AM,28.8,18.9,67,30.17,10.0,West,8.1,-,N/A,,Overcast,280,2013-02-02 12:55:00
7:55 AM,27.9,19.8,72,30.18,10.0,West,6.9,-,N/A,,Scattered Clouds,270,2013-02-02 13:55:00
8:55 AM,30.2,20.8,68,30.20,10.0,West,6.9,-,N/A,,Clear,270,2013-02-02 14:55:00
9:55 AM,33.4,22.5,64,30.22,10.0,NW,9.2,-,N/A,,Partly Cloudy,310,2013-02-02 15:55:00
10:55 AM,35.8,24.3,63,30.22,10.0,WNW,8.1,-,N/A,,Overcast,290,2013-02-02 16:55:00
11:55 AM,36.7,24.1,60,30.22,10.0,WNW,6.9,-,N/A,,Overcast,300,2013-02-02 17:55:00
12:55 PM,38.3,24.8,58,30.19,10.0,WNW,8.1,-,N/A,,Overcast,300,2013-02-02 18:55:00
1:55 PM,40.3,26.2,57,30.19,10.0,WNW,8.1,-,N/A,,Overcast,300,2013-02-02 19:55:00
2:55 PM,42.8,28.6,57,30.18,10.0,WNW,12.7,-,N/A,,Clear,290,2013-02-02 20:55:00
3:55 PM,42.4,28.9,59,30.17,10.0,WNW,8.1,-,N/A,,Overcast,290,2013-02-02 21:55:00
4:55 PM,39.4,29.8,69,30.18,10.0,North,5.8,-,N/A,,Overcast,10,2013-02-02 22:55:00
5:55 PM,35.2,28.2,76,30.16,10.0,Calm,Calm,-,N/A,,Mostly Cloudy,0,2013-02-02 23:55:00
6:55 PM,30.9,27.9,88,30.15,10.0,SSE,3.5,-,N/A,,Clear,160,2013-02-03 00:55:00
7:55 PM,30.4,28.6,93,30.14,10.0,South,6.9,-,N/A,,Mostly Cloudy,170,2013-02-03 01:55:00
8:55 PM,31.3,30.0,95,30.10,10.0,SSW,9.2,-,N/A,,Overcast,200,2013-02-03 02:55:00
9:31 PM,39.2,33.8,81,30.08,10.0,SW,13.8,-,N/A,,Light Drizzle,230,2013-02-03 03:31:00
9:55 PM,41.2,34.0,76,30.09,10.0,West,10.4,19.6,0.00,Rain,Light Rain,270,2013-02-03 03:55:00
10:06 PM,44.6,33.8,66,30.07,10.0,West,12.7,25.3,N/A,,Mostly Cloudy,260,2013-02-03 04:06:00
10:55 PM,43.3,32.7,66,30.09,10.0,West,17.3,-,0.00,,Overcast,280,2013-02-03 04:55:00
11:55 PM,41.7,32.9,71,30.12,10.0,WNW,10.4,-,N/A,,Scattered Clouds,290,2013-02-03 05:55:00